Regional Weather Roundup
Issued by NWS

Home | Current Version | Previous Version | Graphics & Text | Print | Product List | Glossary On
Versions: 1 2 3 4 5 6 7 8 9 10 11 12 13 14 15 16 17 18 19 20 21 22 23 24 25 26 27 28 29 30 31 32 33 34 35 36 37 38 39 40 41 42 43 44 45 46 47 48 49 50
000
ASUS45 KCYS 300710
RWRWY

WYOMING REGIONAL WEATHER ROUNDUP
NATIONAL WEATHER SERVICE CHEYENNE WY
100 AM MDT WED JUL 30 2014

NOTE:  "FAIR" INDICATES FEW OR NO CLOUDS BELOW 12,000 FEET
WITH NO SIGNIFICANT WEATHER AND/OR OBSTRUCTIONS TO VISIBILITY.

WYZ001-300800-
YELLOWSTONE NATIONAL PARK

CITY           SKY/WX    TMP DP  RH WIND       PRES   REMARKS
LK YELLOWSTONE   N/A     44  42  93 CALM      30.48R
W YELLOWSTONE  NOT AVBL

$$
WYZ002>013-054>058-071-098>099-300800-
NORTHERN WYOMING

CITY           SKY/WX    TMP DP  RH WIND       PRES   REMARKS
JACKSON        CLOUDY    54  50  87 N12       30.36S
CODY           NOT AVBL
GREYBULL       CLEAR     61  53  75 SE3       30.26S
WORLAND        PTCLDY    58  56  93 SE7       30.27R
SHERIDAN       CLEAR     56  47  71 SE3       30.24S
BUFFALO        CLEAR     58  43  57 SW8       30.30S
GILLETTE       CLEAR     59  54  83 SW9       30.27S
HULETT         FAIR      61  54  77 MISG      30.27
NEWCASTLE      FAIR      55  52  88 NE3       30.29

$$
WYZ014>020-022>026-101>103-300800-
CENTRAL WYOMING

CITY           SKY/WX    TMP DP  RH WIND       PRES   REMARKS
BIG PINEY      CLOUDY    55  53  93 SW5       30.39R
PINEDALE       CLOUDY    52  52 100 W3        30.39F
DUBOIS         FAIR      50  46  87 NW3       30.41S
LANDER         CLOUDY    59  56  89 CALM      30.33R
RIVERTON       CLOUDY    57  54  89 NE5       30.34S
CASPER         CLOUDY    57  54  89 NE3       30.32S
DOUGLAS        CLOUDY    57  53  86 SE5       30.32F

$$
WYZ021-027>030-104>119-300800-
SOUTHERN WYOMING

CITY           SKY/WX    TMP DP  RH WIND       PRES   REMARKS
EVANSTON       LGT RAIN  56  54  93 E13       30.34S
KEMMERER       RAIN      52  52 100 NE18      30.38S
FORT BRIDGER   CLOUDY    55  55 100 NE12G18   30.38S
ROCK SPRINGS   CLOUDY    57  52  83 NE10      30.35S
DIXON          CLOUDY    59  57  92 CALM      30.31S
RAWLINS        CLOUDY    53  51  93 E17       30.34F
SARATOGA       DRIZZLE   54  54 100 SE6       30.34F
LARAMIE        LGT RAIN  53  51  93 NE6       30.36F
CHEYENNE       RAIN      56  55  97 E8        30.33S FOG
TORRINGTON     CLOUDY    62  61  96 N5        30.26S
PINE BLUFFS    LGT RAIN  57  55  94 CALM      30.30S

$$



USA.gov is the U.S. government's official web portal to all federal, state and local government web resources and services.